Weather WX

World > North America > United States > Mississippi

Muldrow, Mississippi Regional Weather

Lat: 33.55N, Lon: 88.7W
Wx Zone: MSZ033
Warning FLW WEATHER ALERT - (More Info. Click Here) Warning
Feedback

Muldrow, MS Regional Weather

Expires:201907172100;;212592
ASUS44 KJAN 172010
RWRMS 

MISSISSIPPI HOURLY WEATHER ROUNDUP
NATIONAL WEATHER SERVICE JACKSON MS
300 PM CDT WED JUL 17 2019

NOTE: "FAIR: INDICATES FEW OR NO CLOUDS BELOW 12,000 FEET WITH NO
SIGNIFICANT WEATHER AND/OR OBSTRUCTIONS TO VISIBILITY.


MSZ003>006-009-014>017-022>024-029>033-037>039-172100-
NORTHEAST MISSISSIPPI
  
CITY           SKY/WX    TMP DP  RH WIND       PRES   REMARKS
ABERDEEN       FAIR      90  75  62 VRB7      30.08F HX 100           
COLUMBUS AFB   FAIR      91  77  62 SW6       30.06F HX 104           
CORINTH        FAIR      90  77  66 SW7G15    30.03F HX 102           
GOLDN TRIANGLE HVY RAIN  82  77  84 N9G18     30.10S HX  90           
STARKVILLE     MOCLDY    88  75  66 SW3       30.09F HX  97           
TUPELO         FAIR      92  78  63 SW8       30.05F HX 107           
$$


SKY/WX - Weather  TMP - Temperature  DP - Dew Point  RH - Relative Humidity
WIND - Wind Direction/Speed PRES - Barometric Pressure VSB - Visibility
WCI - Wind Chill Index E13G22 Wind - East Wind 13 mph/Gusts of 22 mph